Regional Weather Roundup
Issued by NWS

Home | Current Version | Previous Version | Graphics & Text | Print | Product List | Glossary On
Versions: 1 2 3 4 5 6 7 8 9 10 11 12 13 14 15 16 17 18 19 20 21 22 23 24 25 26 27 28 29 30 31 32 33 34 35 36 37 38 39 40 41 42 43 44 45 46 47 48 49 50
000
ASUS43 KMPX 290501
RWRMN
WEATHER ROUNDUP FOR MINNESOTA
NATIONAL WEATHER SERVICE TWIN CITIES/CHANHASSEN MN
1100 PM CST FRI NOV 28 2014


NOTE: "FAIR" INDICATES FEW OR NO CLOUDS BELOW 12,000 FEET WITH NO
SIGNIFICANT WEATHER AND/OR OBSTRUCTIONS TO VISIBILITY. N/A MEANS
CURRENT SKY AND/OR WEATHER CONDITIONS ARE NOT AVAILABLE.

MNZ060>063-068>070-290600-
   Twin Cities Metro

CITY           SKY/WX    TMP DP  RH WIND       PRES   REMARKS
TWIN CITIES    CLOUDY    23  18  81 E8        29.72F WCI  14
ST PAUL        CLOUDY    23  18  81 MISG      29.74F
CRYSTAL        CLOUDY    25  18  74 E5        29.71F WCI  19
BLAINE         CLOUDY    25  19  80 E5        29.71F WCI  19
LAKEVILLE      CLOUDY    19  18  93 E5        29.70F WCI  13
EDEN PRAIRIE   CLOUDY    23  18  81 E7        29.70F WCI  15
SOUTH ST PAUL  CLOUDY    25  20  81 SE5       29.72F WCI  19
LAKE ELMO      FAIR      25  21  86 SE3       29.73F
$$
MNZ001>005-007-008-013>017-022>024-027-028-290600-
   Northwest Minnesota

CITY           SKY/WX    TMP DP  RH WIND       PRES   REMARKS
BEMIDJI        FLURRIES  16  12  84 S10       29.61F WCI   4
HALLOCK        MOCLDY    18  12  79 SE9       29.60F WCI   6
ROSEAU         CLOUDY    18  12  79 S8        29.62R WCI   7
WARROAD        CLOUDY    16  12  86 S5        29.64S WCI   9
THIEF RVR FALL CLOUDY    18  12  79 SE7       29.59F WCI   8
CROOKSTON      MOCLDY    18  14  86 S14       29.61F WCI   4
FOSSTON        CLOUDY    18  12  79 S9        29.59F WCI   6
DETROIT LAKES  CLOUDY    19  16  86 S16       29.59F WCI   5
MOORHEAD       CLOUDY    19  18  93 S16G23    29.58F WCI   5
PARK RAPIDS    CLOUDY    16  13  88 SE14      29.60F WCI   2
MAHNOMEN       CLOUDY    17  13  82 S10       29.58F WCI   5
$$
MNZ006-009>011-018-025>026-290600-
   North Central Minnesota

CITY           SKY/WX    TMP DP  RH WIND       PRES   REMARKS
BAUDETTE       CLOUDY    16  12  84 SE6       29.61F WCI   7
FLAG ISLAND    CLOUDY    16  12  86 SE9       29.64R WCI   4
INTL FALLS     LGT SNOW  17  14  88 SE9       29.64F FOG     WCI   6
WASKISH        CLOUDY    18  12  79 SE9       29.61F WCI   6
BIG FORK       CLOUDY    18  10  73 SE8       29.64F WCI   7
LONGVILLE      CLOUDY    16  12  86 SE10      29.65F WCI   3
GRAND RAPIDS   CLOUDY    16  10  79 SE12      29.65F WCI   3
CRANE LAKE     CLOUDY    18  16  93 SE5       29.72F WCI  11
ORR            LGT SNOW  18  12  79 SE7       29.65F WCI   8
COOK             N/A     18  14  86 SE6       29.69F WCI   9
WALKER         CLOUDY    16  12  84 SE8       29.63F WCI   5
$$
MNZ012-019>021-037-290600-
   Northeast Minnesota

CITY           SKY/WX    TMP DP  RH WIND       PRES   REMARKS
DULUTH         CLOUDY    17  12  80 SE9       29.70F WCI   6
ELY            FLURRIES  18  16  93 S7        29.70F WCI   8
HIBBING        CLOUDY    17  11  77 S9        29.69F WCI   6
EVELETH        LGT SNOW  18  14  86 S7        29.71F WCI   8
DULUTH HARBOR  CLOUDY    19  16  86 CALM      29.77F
TWO HARBORS    CLOUDY    21  16  79 SE3       29.73F
SILVER BAY     FLURRIES  21  16  79 SE3       29.74F
GRAND MARAIS     N/A     27  21  78 S13       29.80F WCI  16
G MARAIS ARPRT CLOUDY    18  16  93 S10G17    29.71F WCI   6
$$
MNZ029>031-032-039>041-046>048-054>057-064-290600-
   West Central Minnesota

CITY           SKY/WX    TMP DP  RH WIND       PRES   REMARKS
FERGUS FALLS   CLOUDY    19  14  79 SE14      29.63F WCI   6
WHEATON        CLOUDY    18  16  93 SE12      29.61F WCI   5
MORRIS         PTCLDY    21  18  86 SE18      29.60S WCI   6
ALEXANDRIA     CLOUDY    19  15  84 SE13      29.60F WCI   6
ELBOW LAKE     CLOUDY    19  17  89 SE14      29.60S WCI   6
WADENA         CLOUDY    16  12  86 SE12      29.60F WCI   3
GLENWOOD       PTCLDY    18  16  93 SE13      29.61F WCI   4
APPLETON       CLOUDY    21  18  86 SE12      29.61F WCI   9
BENSON         MOCLDY    19  18  93 S16       29.61F WCI   5
ORTONVILLE     CLOUDY    19  16  86 SE8       29.59F WCI   9
MADISON        PTCLDY    21  19  93 SE12      29.61F WCI   9
WILLMAR        FAIR      21  18  86 SE15      29.64F WCI   8
$$
MNZ033>034-036-042>043-049>051-058-059-290600-
   Central Minnesota

CITY           SKY/WX    TMP DP  RH WIND       PRES   REMARKS
ST CLOUD       CLOUDY    21  15  78 SE8       29.67F WCI  11
SAUK CENTRE    MOCLDY    19  15  88 SE12      29.63F WCI   6
PAYNESVILLE    PTCLDY    17  15  93 E9        29.65F WCI   6
AITKIN         CLOUDY    19  12  73 SE6       29.67F WCI  11
PINE RIVER     CLOUDY    18  12  79 SE12      29.68F WCI   5
BRAINERD       CLOUDY    17  13  84 SE6       29.67F WCI   9
STAPLES        CLOUDY    16  12  86 SE7       29.62F WCI   6
LONG PRAIRIE   CLOUDY    18  14  86 E9        29.62F WCI   6
LITTLE FALLS   CLOUDY    19  14  79 E7        29.66F WCI  10
LITCHFIELD     PTCLDY    19  18  93 E7        29.67F WCI  10
BUFFALO        MOCLDY    21  18  86 E3        29.69F
MAPLE LAKE     MOCLDY    21  19  90 E5        29.69F WCI  15
$$
MNZ037-044-045-052-053-290600-
   East Central Minnesota

CITY           SKY/WX    TMP DP  RH WIND       PRES   REMARKS
PRINCETON      CLOUDY    19  16  86 E6        29.69F WCI  11
MORA             N/A    N/A N/A N/A MISG        N/A
CAMBRIDGE      MOCLDY    21  12  68 E5        29.70F WCI  15
RUSH CITY      CLOUDY    19  15  84 CALM      29.73F
MOOSE LAKE     CLOUDY    19  14  79 CALM      29.71F
HINCKLEY       CLOUDY    19  16  86 CALM      29.74R
CLOQUET        CLOUDY    18  12  79 SE5       29.71F WCI  11
MCGREGOR       MOCLDY    19  14  79 SE7       29.70F WCI  10
$$
MNZ071>073-080-081-089-090-097-098-290600-
   Southwest Minnesota

CITY           SKY/WX    TMP DP  RH WIND       PRES   REMARKS
MONTEVIDEO     PTCLDY    18  18 100 S10       29.62F WCI   6
GRANITE FALLS  CLEAR     19  17  93 E13       29.64F WCI   6
CANBY          CLOUDY    18  17  95 SE8       29.60F WCI   8
MARSHALL       PTCLDY    16  12  86 SE6       29.61F WCI   7
REDWOOD FALLS  PTCLDY    18  16  92 E7        29.64F WCI   9
OLIVIA         PTCLDY    21  18  86 SE9       29.64F WCI  11
PIPESTONE      PTCLDY    23  21  93 SE8       29.56F FOG     WCI  14
WINDOM         CLEAR     19  18  93 E6        29.61F FOG     WCI  11
WORTHINGTON    PTCLDY    18  16  93 SE6       29.59F WCI   9
JACKSON        PTCLDY    21  19  93 SE6       29.61F WCI  14
TRACY          CLEAR     15  14  92 CALM      29.61F
SLAYTON        CLOUDY    19  19  98 CALM      29.59F FOG
$$
MNZ065>067-074>077-082>085-091>093-290600-
   South Central Minnesota

CITY           SKY/WX    TMP DP  RH WIND       PRES   REMARKS
MANKATO        PTCLDY    21  16  79 SE10      29.66F WCI  10
NEW ULM        PTCLDY    19  19 100 E5        29.66F FOG     WCI  13
ST JAMES       PTCLDY    18  16  93 E6        29.65F FOG     WCI   9
FAIRMONT       PTCLDY    18  14  86 SE7       29.63F WCI   8
GLENCOE        PTCLDY    21  19  93 E7        29.67F WCI  12
FARIBAULT      MOCLDY    25  21  86 E5        29.69F WCI  19
OWATONNA       PTCLDY    25  19  80 SE15      29.67F WCI  12
WASECA         PTCLDY    23  18  80 SE13      29.68F WCI  11
ALBERT LEA     PTCLDY    21  21 100 SE8       29.68S WCI  12
$$
MNZ078>079-086>088-094>096-290600-
   Southeast Minnesota

CITY           SKY/WX    TMP DP  RH WIND       PRES   REMARKS
ROCHESTER      PTCLDY    22  19  89 SE16      29.69F WCI   8
RED WING       MOCLDY    27  19  74 SE9       29.73F WCI  17
STANTON        CLOUDY    26  20  80 SE6       29.70F WCI  19
DODGE CENTER   MOCLDY    23  21  93 SE14      29.68F WCI  11
WINONA         MOCLDY    25  21  86 SE7       29.77F WCI  17
AUSTIN         PTCLDY    19  18  93 SE6       29.69F WCI  11
PRESTON        CLEAR     21  19  92 SE10      29.71F WCI  10
$$
ABBREVIATIONS USED IN REMARKS
   TC - TEMPERATURES IN CELSIUS
  WCI - WIND CHILL INDEX
   HX - HEAT INDEX
  VSB - VISIBILITY
$$



USA.gov is the U.S. government's official web portal to all federal, state and local government web resources and services.